Time,TemperatureF,DewpointF,PressureIn,WindDirection,WindDirectionDegrees,WindSpeedMPH,WindSpeedGustMPH,Humidity,HourlyPrecipIn,Conditions,Clouds,dailyrainin,SoftwareType,DateUTC
2013-08-22 00:00:00,69.5,60.1,29.72,SSW,192,0.0,0.0,72,0.00,RA,SKC,0.00,WeatherDisplay:10.37,2013-08-22 05:00:00,
2013-08-22 00:05:00,69.5,60.1,29.72,SSW,192,0.0,0.0,72,0.00,RA,SKC,0.00,WeatherDisplay:10.37,2013-08-22 05:05:00,
2013-08-22 00:10:00,69.5,60.1,29.72,SSW,192,0.0,0.0,72,0.00,CLR,SKC,0.00,WeatherDisplay:10.37,2013-08-22 05:10:00,
2013-08-22 00:15:00,69.6,60.6,29.72,SSW,192,0.0,0.0,73,0.00,CLR,SKC,0.00,WeatherDisplay:10.37,2013-08-22 05:15:00,
2013-08-22 00:20:00,69.4,60.0,29.72,SSW,192,0.0,0.0,72,0.00,CLR,SKC,0.00,WeatherDisplay:10.37,2013-08-22 05:20:00,
2013-08-22 00:25:00,69.1,59.7,29.72,SSW,192,0.0,0.0,72,0.00,CLR,SKC,0.00,WeatherDisplay:10.37,2013-08-22 05:25:00,
2013-08-22 00:30:00,68.9,59.5,29.72,SSW,192,0.0,0.0,72,0.00,CLR,SKC,0.00,WeatherDisplay:10.37,2013-08-22 05:30:00,
2013-08-22 00:35:00,68.5,59.1,29.72,SSW,192,0.0,0.0,72,0.00,CLR,SKC,0.00,WeatherDisplay:10.37,2013-08-22 05:35:00,
2013-08-22 00:40:00,68.8,59.4,29.73,SSW,192,0.0,0.0,72,0.00,CLR,SKC,0.00,WeatherDisplay:10.37,2013-08-22 05:40:00,
2013-08-22 00:45:00,68.8,59.4,29.73,SSW,192,0.0,0.0,72,0.00,CLR,SKC,0.00,WeatherDisplay:10.37,2013-08-22 05:45:00,
2013-08-22 00:50:00,69.0,59.6,29.73,SSW,192,0.0,0.0,72,0.00,CLR,SKC,0.00,WeatherDisplay:10.37,2013-08-22 05:50:00,
2013-08-22 00:55:00,69.0,59.6,29.73,SSW,192,0.0,0.0,72,0.00,CLR,SKC,0.00,WeatherDisplay:10.37,2013-08-22 05:55:00,
2013-08-22 01:00:00,68.9,59.5,29.73,SSW,192,0.0,0.0,72,0.00,CLR,SKC,0.00,WeatherDisplay:10.37,2013-08-22 06:00:00,
2013-08-22 01:05:00,68.4,59.0,29.73,SSW,192,0.0,0.0,72,0.00,CLR,SKC,0.00,WeatherDisplay:10.37,2013-08-22 06:05:00,
2013-08-22 01:10:00,68.0,58.6,29.73,SSW,192,0.0,0.0,72,0.00,CLR,SKC,0.00,WeatherDisplay:10.37,2013-08-22 06:10:00,
2013-08-22 01:15:00,67.9,58.5,29.74,SSW,192,0.0,0.0,72,0.00,CLR,SKC,0.00,WeatherDisplay:10.37,2013-08-22 06:15:00,
2013-08-22 01:20:00,67.8,58.4,29.74,SSW,192,0.0,0.0,72,0.00,CLR,SKC,0.00,WeatherDisplay:10.37,2013-08-22 06:20:00,
2013-08-22 01:25:00,67.9,58.5,29.73,SSW,192,0.0,0.0,72,0.00,CLR,SKC,0.00,WeatherDisplay:10.37,2013-08-22 06:25:00,
2013-08-22 01:30:00,68.1,58.7,29.74,SSW,192,0.0,0.0,72,0.00,CLR,SKC,0.00,WeatherDisplay:10.37,2013-08-22 06:30:00,
2013-08-22 01:35:00,68.5,59.5,29.74,SSW,192,0.0,0.0,73,0.00,CLR,SKC,0.00,WeatherDisplay:10.37,2013-08-22 06:35:00,
2013-08-22 01:40:00,68.4,59.0,29.74,SSW,192,0.0,0.0,72,0.00,CLR,SKC,0.00,WeatherDisplay:10.37,2013-08-22 06:40:00,
2013-08-22 01:45:00,68.5,59.5,29.74,SSW,192,0.0,0.0,73,0.00,CLR,SKC,0.00,WeatherDisplay:10.37,2013-08-22 06:45:00,
2013-08-22 01:50:00,68.7,59.7,29.74,SSW,192,0.0,0.0,73,0.00,CLR,SKC,0.00,WeatherDisplay:10.37,2013-08-22 06:50:00,
2013-08-22 01:55:00,68.7,59.7,29.74,SSW,192,0.0,0.0,73,0.00,CLR,SKC,0.00,WeatherDisplay:10.37,2013-08-22 06:55:00,
2013-08-22 02:00:00,68.7,59.7,29.74,SSW,192,0.0,0.0,73,0.00,CLR,SKC,0.00,WeatherDisplay:10.37,2013-08-22 07:00:00,
2013-08-22 02:05:00,68.6,59.6,29.74,SSW,192,0.0,0.0,73,0.00,,SKC,0.00,WeatherDisplay:10.37,2013-08-22 07:05:00,
2013-08-22 02:10:00,68.8,59.8,29.74,SSW,192,0.0,0.0,73,0.00,,SKC,0.00,WeatherDisplay:10.37,2013-08-22 07:10:00,
2013-08-22 02:15:00,69.1,60.1,29.74,SSW,192,0.0,0.0,73,0.00,,SKC,0.00,WeatherDisplay:10.37,2013-08-22 07:15:00,
2013-08-22 02:20:00,69.3,60.3,29.74,SSW,192,0.0,0.0,73,0.00,,SKC,0.00,WeatherDisplay:10.37,2013-08-22 07:20:00,
2013-08-22 02:25:00,69.4,60.4,29.74,SSW,192,0.0,0.0,73,0.00,CLR,SKC,0.00,WeatherDisplay:10.37,2013-08-22 07:25:00,
2013-08-22 02:30:00,69.5,60.5,29.74,SSW,192,0.0,0.0,73,0.00,CLR,SKC,0.00,WeatherDisplay:10.37,2013-08-22 07:30:00,
2013-08-22 02:35:00,69.7,60.7,29.73,SSW,192,0.0,0.0,73,0.00,CLR,SKC,0.00,WeatherDisplay:10.37,2013-08-22 07:35:00,
2013-08-22 02:40:00,69.7,60.7,29.73,SSW,192,0.0,0.0,73,0.00,CLR,SKC,0.00,WeatherDisplay:10.37,2013-08-22 07:40:00,
2013-08-22 02:45:00,69.6,60.6,29.73,SSW,192,0.0,0.0,73,0.00,CLR,SKC,0.00,WeatherDisplay:10.37,2013-08-22 07:45:00,
2013-08-22 02:50:00,69.5,60.5,29.73,SSW,192,0.0,0.0,73,0.00,CLR,SKC,0.00,WeatherDisplay:10.37,2013-08-22 07:50:00,
2013-08-22 02:55:00,69.4,60.4,29.73,SSW,192,0.0,0.0,73,0.00,CLR,SKC,0.00,WeatherDisplay:10.37,2013-08-22 07:55:00,
2013-08-22 03:00:00,69.4,60.4,29.73,SSW,192,0.0,0.0,73,0.00,CLR,SKC,0.00,WeatherDisplay:10.37,2013-08-22 08:00:00,
2013-08-22 03:05:00,69.3,60.3,29.73,SSW,192,0.0,0.0,73,0.00,,SKC,0.00,WeatherDisplay:10.37,2013-08-22 08:05:00,
2013-08-22 03:10:00,69.4,60.4,29.73,SSW,192,0.0,0.0,73,0.00,,SKC,0.00,WeatherDisplay:10.37,2013-08-22 08:10:00,
2013-08-22 03:15:00,69.4,60.4,29.73,SSW,192,0.0,0.0,73,0.00,,SKC,0.00,WeatherDisplay:10.37,2013-08-22 08:15:00,
2013-08-22 03:20:00,69.7,60.7,29.73,SSW,192,0.0,0.0,73,0.00,,SKC,0.00,WeatherDisplay:10.37,2013-08-22 08:20:00,
2013-08-22 03:25:00,69.7,60.7,29.74,SSW,192,0.0,0.0,73,0.00,CLR,SKC,0.00,WeatherDisplay:10.37,2013-08-22 08:25:00,
2013-08-22 03:30:00,69.6,60.6,29.73,SSW,192,0.0,0.0,73,0.00,CLR,SKC,0.00,WeatherDisplay:10.37,2013-08-22 08:30:00,
2013-08-22 03:35:00,69.5,60.5,29.74,SSW,192,0.0,0.0,73,0.00,CLR,SKC,0.00,WeatherDisplay:10.37,2013-08-22 08:35:00,
2013-08-22 03:40:00,69.5,60.5,29.74,SSW,192,0.0,0.0,73,0.00,CLR,SKC,0.00,WeatherDisplay:10.37,2013-08-22 08:40:00,
2013-08-22 03:45:00,69.5,60.5,29.74,SSW,192,0.0,0.0,73,0.00,-RA,SKC,0.00,WeatherDisplay:10.37,2013-08-22 08:45:00,
2013-08-22 03:50:00,69.5,60.5,29.73,SSW,192,0.0,0.0,73,0.00,-RA,SKC,0.00,WeatherDisplay:10.37,2013-08-22 08:50:00,
2013-08-22 03:55:00,69.3,60.3,29.73,SSW,192,0.0,0.0,73,0.00,-RA,SKC,0.00,WeatherDisplay:10.37,2013-08-22 08:55:00,
2013-08-22 04:00:00,69.0,60.0,29.73,SSW,192,0.0,0.0,73,0.00,-RA,SKC,0.00,WeatherDisplay:10.37,2013-08-22 09:00:00,
2013-08-22 04:05:00,68.9,59.9,29.74,SSW,192,0.0,0.0,73,0.00,-RA,SKC,0.00,WeatherDisplay:10.37,2013-08-22 09:05:00,
2013-08-22 04:10:00,69.0,60.0,29.74,SSW,192,0.0,0.0,73,0.00,-RA,SKC,0.00,WeatherDisplay:10.37,2013-08-22 09:10:00,
2013-08-22 04:15:00,69.3,60.3,29.74,SSW,192,0.0,0.0,73,0.00,-RA,SKC,0.00,WeatherDisplay:10.37,2013-08-22 09:15:00,
2013-08-22 04:20:00,69.3,60.3,29.74,SSW,192,0.0,0.0,73,0.01,-RA,SKC,0.01,WeatherDisplay:10.37,2013-08-22 09:20:00,
2013-08-22 04:25:00,69.3,60.3,29.74,SSW,192,0.0,0.0,73,0.01,-RA,SKC,0.01,WeatherDisplay:10.37,2013-08-22 09:25:00,
2013-08-22 04:30:00,69.3,60.3,29.74,SSW,192,0.0,0.0,73,0.01,-RA,SKC,0.01,WeatherDisplay:10.37,2013-08-22 09:30:00,
2013-08-22 04:35:00,69.5,60.5,29.73,SSW,192,0.0,0.0,73,0.01,-RA,SKC,0.01,WeatherDisplay:10.37,2013-08-22 09:35:00,
2013-08-22 04:40:00,69.7,60.7,29.74,SSW,192,0.0,0.0,73,0.01,-RA,SKC,0.01,WeatherDisplay:10.37,2013-08-22 09:40:00,
2013-08-22 04:45:00,69.8,60.8,29.75,SSW,192,0.0,0.0,73,0.02,-RA,SKC,0.02,WeatherDisplay:10.37,2013-08-22 09:45:00,
2013-08-22 04:50:00,69.8,60.8,29.76,SSW,192,0.0,0.0,73,0.02,-RA,SKC,0.02,WeatherDisplay:10.37,2013-08-22 09:50:00,
2013-08-22 04:55:00,69.8,60.8,29.77,SSW,192,3.8,6.0,73,0.02,-RA,SKC,0.02,WeatherDisplay:10.37,2013-08-22 09:55:00,
2013-08-22 05:00:00,70.1,61.0,29.77,SW,219,4.2,9.2,73,0.03,-RA,SKC,0.03,WeatherDisplay:10.37,2013-08-22 10:00:00,
2013-08-22 05:05:00,69.4,60.4,29.77,WSW,239,2.9,8.1,73,0.03,RA,SKC,0.03,WeatherDisplay:10.37,2013-08-22 10:05:00,
2013-08-22 05:10:00,68.3,58.9,29.76,WSW,244,3.6,6.9,72,0.03,BKN,SKC,0.03,WeatherDisplay:10.37,2013-08-22 10:10:00,
2013-08-22 05:15:00,67.7,58.3,29.75,WSW,243,4.1,9.2,72,0.03,BKN,SKC,0.03,WeatherDisplay:10.37,2013-08-22 10:15:00,
2013-08-22 05:20:00,67.3,57.6,29.74,SW,236,3.7,7.0,71,0.03,RA,SKC,0.04,WeatherDisplay:10.37,2013-08-22 10:20:00,
2013-08-22 05:25:00,67.1,57.4,29.75,SSW,198,3.4,9.2,71,0.03,RA,SKC,0.04,WeatherDisplay:10.37,2013-08-22 10:25:00,
2013-08-22 05:30:00,66.9,57.2,29.75,WSW,246,0.0,1.2,71,0.03,SCT,SKC,0.04,WeatherDisplay:10.37,2013-08-22 10:30:00,
2013-08-22 05:35:00,66.8,57.1,29.76,WSW,246,0.0,0.0,71,0.03,SCT,SKC,0.04,WeatherDisplay:10.37,2013-08-22 10:35:00,
2013-08-22 05:40:00,66.7,57.4,29.76,WSW,246,0.0,0.0,72,0.03,SCT,SKC,0.04,WeatherDisplay:10.37,2013-08-22 10:40:00,
2013-08-22 05:45:00,66.5,57.2,29.76,WSW,246,0.0,0.0,72,0.02,-RA,SKC,0.04,WeatherDisplay:10.37,2013-08-22 10:45:00,
2013-08-22 07:27:00,66.2,57.3,29.78,West,273,2.2,3.5,73,0.00,-RA,SKC,0.04,WeatherDisplay:10.37,2013-08-22 12:27:00,
2013-08-22 07:32:00,66.2,57.3,29.79,WNW,289,0.0,0.0,73,0.00,-RA,SKC,0.04,WeatherDisplay:10.37,2013-08-22 12:32:00,
2013-08-22 07:37:00,66.3,57.4,29.79,WNW,289,0.8,2.0,73,0.00,-RA,SKC,0.04,WeatherDisplay:10.37,2013-08-22 12:37:00,
2013-08-22 07:42:00,66.3,57.4,29.80,WNW,289,1.5,3.5,73,0.00,CLR,SKC,0.04,WeatherDisplay:10.37,2013-08-22 12:42:00,
2013-08-22 07:47:00,66.4,57.5,29.81,WNW,289,0.8,2.3,73,0.00,CLR,SKC,0.05,WeatherDisplay:10.37,2013-08-22 12:47:00,
2013-08-22 07:52:00,66.5,57.6,29.81,WNW,289,1.7,3.5,73,0.01,RA,SKC,0.05,WeatherDisplay:10.37,2013-08-22 12:52:00,
2013-08-22 07:57:00,66.6,57.7,29.82,WNW,289,0.0,1.2,73,0.01,RA,SKC,0.05,WeatherDisplay:10.37,2013-08-22 12:57:00,
2013-08-22 08:01:00,66.6,57.7,29.81,WNW,289,0.0,2.3,73,0.01,SCT,SKC,0.05,WeatherDisplay:10.37,2013-08-22 13:01:00,
2013-08-22 08:06:00,66.6,57.7,29.81,WNW,289,0.0,0.0,73,0.01,SCT,SKC,0.05,WeatherDisplay:10.37,2013-08-22 13:06:00,
2013-08-22 08:11:00,66.6,57.7,29.81,WNW,289,0.0,1.2,73,0.01,SCT,SKC,0.05,WeatherDisplay:10.37,2013-08-22 13:11:00,
2013-08-22 08:16:00,66.6,57.7,29.81,WNW,289,0.0,1.2,73,0.01,SCT,SKC,0.05,WeatherDisplay:10.37,2013-08-22 13:16:00,
2013-08-22 08:21:00,66.5,57.6,29.80,WNW,289,1.4,2.3,73,0.01, +RA,SKC,0.06,WeatherDisplay:10.37,2013-08-22 13:21:00,
2013-08-22 08:26:00,66.6,57.7,29.80,WNW,289,0.0,2.3,73,0.02, +RA,SKC,0.06,WeatherDisplay:10.37,2013-08-22 13:26:00,
2013-08-22 08:31:00,66.6,57.7,29.79,WNW,289,0.0,0.0,73,0.02, +RA,SKC,0.06,WeatherDisplay:10.37,2013-08-22 13:31:00,
2013-08-22 08:36:00,66.6,57.7,29.79,WNW,289,0.0,0.0,73,0.02, +RA,SKC,0.06,WeatherDisplay:10.37,2013-08-22 13:36:00,
2013-08-22 08:41:00,66.6,57.7,29.79,WNW,289,0.0,0.0,73,0.02,OVC,SKC,0.06,WeatherDisplay:10.37,2013-08-22 13:41:00,
2013-08-22 08:46:00,66.6,57.7,29.78,WNW,289,0.0,0.0,73,0.02,OVC,SKC,0.06,WeatherDisplay:10.37,2013-08-22 13:46:00,
2013-08-22 08:51:00,66.6,57.7,29.78,WNW,289,0.0,0.0,73,0.02,RA,SKC,0.07,WeatherDisplay:10.37,2013-08-22 13:51:00,
2013-08-22 08:56:00,66.6,57.7,29.77,WNW,289,0.0,0.0,73,0.02,RA,SKC,0.07,WeatherDisplay:10.37,2013-08-22 13:56:00,
2013-08-22 09:01:00,66.7,57.8,29.77,WNW,289,0.0,0.0,73,0.03,-RA,SKC,0.08,WeatherDisplay:10.37,2013-08-22 14:01:00,
2013-08-22 09:06:00,66.7,57.8,29.78,WNW,289,0.0,0.0,73,0.03,-RA,SKC,0.08,WeatherDisplay:10.37,2013-08-22 14:06:00,
2013-08-22 09:11:00,66.9,58.0,29.77,WNW,289,0.0,1.0,73,0.03,-RA,SKC,0.08,WeatherDisplay:10.37,2013-08-22 14:11:00,
2013-08-22 09:16:00,67.1,58.2,29.78,WNW,289,0.6,2.0,73,0.04,-RA,SKC,0.09,WeatherDisplay:10.37,2013-08-22 14:16:00,
2013-08-22 09:21:00,67.2,58.2,29.78,NNW,333,1.5,3.5,73,0.04,RA,SKC,0.09,WeatherDisplay:10.37,2013-08-22 14:21:00,
2013-08-22 09:26:00,67.2,58.2,29.78,NNE,32,1.9,7.0,73,0.04,RA,SKC,0.10,WeatherDisplay:10.37,2013-08-22 14:26:00,
2013-08-22 09:31:00,67.2,58.2,29.78,NE,40,2.7,4.0,73,0.04,RA,SKC,0.10,WeatherDisplay:10.37,2013-08-22 14:31:00,
2013-08-22 09:36:00,67.3,58.3,29.79,NE,40,1.9,3.5,73,0.04,SCT,SKC,0.10,WeatherDisplay:10.37,2013-08-22 14:36:00,
2013-08-22 09:41:00,67.4,58.4,29.79,NE,40,0.1,2.3,73,0.05,RA,SKC,0.11,WeatherDisplay:10.37,2013-08-22 14:41:00,
2013-08-22 09:46:00,67.8,58.8,29.79,NE,40,0.4,3.5,73,0.05,RA,SKC,0.11,WeatherDisplay:10.37,2013-08-22 14:46:00,
2013-08-22 09:51:00,68.0,59.0,29.79,NE,40,1.0,3.5,73,0.04,CLR,SKC,0.11,WeatherDisplay:10.37,2013-08-22 14:51:00,
2013-08-22 09:56:00,68.2,59.2,29.79,NE,40,0.0,1.0,73,0.05,RA,SKC,0.12,WeatherDisplay:10.37,2013-08-22 14:56:00,
2013-08-22 10:01:00,68.7,59.7,29.79,NE,40,0.4,2.0,73,0.04,RA,SKC,0.12,WeatherDisplay:10.37,2013-08-22 15:01:00,
2013-08-22 10:06:00,69.2,60.2,29.80,NE,40,0.1,1.2,73,0.04,CLR,SKC,0.12,WeatherDisplay:10.37,2013-08-22 15:06:00,
2013-08-22 10:11:00,69.7,60.7,29.80,NE,40,0.0,2.3,73,0.04,CLR,SKC,0.12,WeatherDisplay:10.37,2013-08-22 15:11:00,
2013-08-22 10:16:00,70.1,61.0,29.79,NE,40,0.6,3.5,73,0.04,RA,SKC,0.13,WeatherDisplay:10.37,2013-08-22 15:16:00,
2013-08-22 10:21:00,70.4,60.9,29.79,ENE,62,2.9,8.1,72,0.04,RA,SKC,0.13,WeatherDisplay:10.37,2013-08-22 15:21:00,
2013-08-22 10:26:00,71.0,60.7,29.79,ENE,62,0.6,3.5,70,0.03,SCT,SKC,0.13,WeatherDisplay:10.37,2013-08-22 15:26:00,
2013-08-22 10:31:00,71.7,61.8,29.79,ENE,62,0.4,2.3,71,0.04,RA,SKC,0.14,WeatherDisplay:10.37,2013-08-22 15:31:00,
2013-08-22 10:36:00,72.4,62.9,29.79,ENE,62,0.5,2.3,72,0.04,RA,SKC,0.14,WeatherDisplay:10.37,2013-08-22 15:36:00,
2013-08-22 10:41:00,73.5,64.3,29.80,ENE,62,0.6,3.5,73,0.03,SCT,SKC,0.14,WeatherDisplay:10.37,2013-08-22 15:41:00,
2013-08-22 10:46:00,73.9,64.7,29.79,ENE,57,2.3,4.0,73,0.03,SCT,SKC,0.14,WeatherDisplay:10.37,2013-08-22 15:46:00,
2013-08-22 10:51:00,74.2,65.0,29.79,ENE,57,0.7,2.3,73,0.03,SCT,SKC,0.14,WeatherDisplay:10.37,2013-08-22 15:51:00,
2013-08-22 10:56:00,75.0,65.8,29.79,ENE,57,0.0,2.3,73,0.02,SCT,SKC,0.14,WeatherDisplay:10.37,2013-08-22 15:56:00,
2013-08-22 11:01:00,75.7,66.4,29.80,ENE,57,0.1,1.2,73,0.02,CLR,SKC,0.14,WeatherDisplay:10.37,2013-08-22 16:01:00,
2013-08-22 11:06:00,76.3,67.0,29.80,East,81,1.4,5.0,73,0.03,RA,SKC,0.15,WeatherDisplay:10.37,2013-08-22 16:06:00,
2013-08-22 11:11:00,76.4,67.5,29.80,East,80,0.0,4.6,74,0.03,RA,SKC,0.15,WeatherDisplay:10.37,2013-08-22 16:11:00,
2013-08-22 11:16:00,76.7,67.4,29.80,East,80,0.5,2.0,73,0.02,CLR,SKC,0.15,WeatherDisplay:10.37,2013-08-22 16:16:00,
2013-08-22 11:21:00,77.0,67.7,29.79,ENE,76,0.1,3.5,73,0.02,CLR,SKC,0.15,WeatherDisplay:10.37,2013-08-22 16:21:00,
2013-08-22 11:26:00,77.1,68.6,29.80,ENE,74,1.2,4.6,75,0.02,CLR,SKC,0.15,WeatherDisplay:10.37,2013-08-22 16:26:00,
2013-08-22 11:31:00,77.3,68.0,29.79,ENE,72,0.6,3.5,73,0.01,CLR,SKC,0.15,WeatherDisplay:10.37,2013-08-22 16:31:00,
2013-08-22 11:36:00,77.6,68.3,29.79,ENE,72,1.6,3.5,73,0.01,CLR,SKC,0.15,WeatherDisplay:10.37,2013-08-22 16:36:00,
2013-08-22 11:41:00,78.1,68.7,29.80,ENE,67,2.4,6.9,73,0.01,SCT,SKC,0.15,WeatherDisplay:10.37,2013-08-22 16:41:00,
2013-08-22 11:46:00,78.7,69.7,29.80,ENE,67,0.2,2.0,74,0.01,SCT,SKC,0.15,WeatherDisplay:10.37,2013-08-22 16:46:00,
2013-08-22 11:51:00,79.2,70.2,29.80,ENE,67,0.6,3.0,74,0.01,SCT,SKC,0.16,WeatherDisplay:10.37,2013-08-22 16:51:00,
2013-08-22 11:56:00,79.2,68.6,29.80,ENE,63,0.6,6.9,70,0.02,RA,SKC,0.16,WeatherDisplay:10.37,2013-08-22 16:56:00,
2013-08-22 12:01:00,79.5,70.1,29.80,ENE,75,0.2,3.5,73,0.02,RA,SKC,0.16,WeatherDisplay:10.37,2013-08-22 17:01:00,
2013-08-22 12:06:00,79.5,69.3,29.80,East,79,1.8,6.9,71,0.01,SCT,SKC,0.16,WeatherDisplay:10.37,2013-08-22 17:06:00,
2013-08-22 12:11:00,79.5,69.7,29.80,NE,54,2.7,8.1,72,0.01,SCT,SKC,0.16,WeatherDisplay:10.37,2013-08-22 17:11:00,
2013-08-22 12:16:00,79.9,70.1,29.80,East,92,0.3,3.5,72,0.01,SCT,SKC,0.16,WeatherDisplay:10.37,2013-08-22 17:16:00,
2013-08-22 12:21:00,80.5,71.0,29.80,East,99,2.8,8.1,73,0.01,SCT,SKC,0.16,WeatherDisplay:10.37,2013-08-22 17:21:00,
2013-08-22 12:26:00,80.4,70.5,29.80,ESE,108,0.7,4.0,72,0.01,SCT,SKC,0.16,WeatherDisplay:10.37,2013-08-22 17:26:00,
2013-08-22 12:31:00,80.2,69.5,29.80,East,87,1.0,6.9,70,0.01,SCT,SKC,0.16,WeatherDisplay:10.37,2013-08-22 17:31:00,
2013-08-22 12:36:00,79.6,69.8,29.80,East,87,0.9,3.5,72,0.01,SCT,SKC,0.16,WeatherDisplay:10.37,2013-08-22 17:36:00,
2013-08-22 12:41:00,79.8,70.0,29.80,East,87,2.0,4.6,72,0.01,CLR,SKC,0.16,WeatherDisplay:10.37,2013-08-22 17:41:00,
2013-08-22 12:46:00,79.6,69.0,29.80,East,84,1.5,6.0,70,0.01,CLR,SKC,0.16,WeatherDisplay:10.37,2013-08-22 17:46:00,
2013-08-22 12:51:00,79.6,69.4,29.80,NE,45,1.5,4.6,71,0.01,CLR,SKC,0.16,WeatherDisplay:10.37,2013-08-22 17:51:00,
2013-08-22 12:56:00,80.0,69.7,29.80,NE,52,2.5,8.1,71,0.01,RA,SKC,0.17,WeatherDisplay:10.37,2013-08-22 17:56:00,
2013-08-22 13:01:00,79.5,69.3,29.80,ENE,58,4.3,9.0,71,0.01,RA,SKC,0.17,WeatherDisplay:10.37,2013-08-22 18:01:00,
2013-08-22 13:06:00,79.6,69.4,29.80,NE,49,2.7,5.8,71,0.01,CLR,SKC,0.17,WeatherDisplay:10.37,2013-08-22 18:06:00,
2013-08-22 13:11:00,79.2,69.0,29.80,NE,49,3.2,5.0,71,0.01,CLR,SKC,0.17,WeatherDisplay:10.37,2013-08-22 18:11:00,
2013-08-22 13:16:00,79.3,69.1,29.80,NE,42,3.5,8.0,71,0.01,CLR,SKC,0.17,WeatherDisplay:10.37,2013-08-22 18:16:00,
2013-08-22 13:21:00,79.6,69.4,29.80,NE,42,4.2,5.8,71,0.01,SCT,SKC,0.17,WeatherDisplay:10.37,2013-08-22 18:21:00,
2013-08-22 13:26:00,79.9,69.2,29.80,NNE,12,1.8,6.9,70,0.01,SCT,SKC,0.17,WeatherDisplay:10.37,2013-08-22 18:26:00,
2013-08-22 13:31:00,80.0,69.3,29.80,NNE,23,2.8,6.0,70,0.01,SCT,SKC,0.17,WeatherDisplay:10.37,2013-08-22 18:31:00,
2013-08-22 13:36:00,80.0,68.1,29.80,NNE,15,3.2,7.0,67,0.01,SCT,SKC,0.17,WeatherDisplay:10.37,2013-08-22 18:36:00,
2013-08-22 13:41:00,80.2,69.1,29.80,NE,46,3.1,5.0,69,0.01,BKN,SKC,0.17,WeatherDisplay:10.37,2013-08-22 18:41:00,
2013-08-22 13:46:00,80.8,69.7,29.81,NE,54,1.8,5.8,69,0.01,BKN,SKC,0.17,WeatherDisplay:10.37,2013-08-22 18:46:00,
2013-08-22 13:51:00,81.2,70.9,29.81,ENE,59,1.9,5.0,71,0.01,BKN,SKC,0.17,WeatherDisplay:10.37,2013-08-22 18:51:00,
2013-08-22 13:56:00,81.4,69.8,29.81,East,82,2.7,6.9,68,0.00,BKN,SKC,0.17,WeatherDisplay:10.37,2013-08-22 18:56:00,
2013-08-22 14:01:00,81.8,70.2,29.81,ENE,61,0.8,8.1,68,0.00,SCT,SKC,0.17,WeatherDisplay:10.37,2013-08-22 19:01:00,
2013-08-22 14:07:00,82.1,69.2,29.81,NE,49,2.4,10.4,65,0.00,SCT,SKC,0.17,WeatherDisplay:10.37,2013-08-22 19:07:00,
2013-08-22 14:12:00,82.2,68.3,29.81,NE,53,2.6,11.5,63,0.01,RA,SKC,0.18,WeatherDisplay:10.37,2013-08-22 19:12:00,
2013-08-22 14:17:00,82.0,70.0,29.81,NE,53,2.3,5.8,67,0.01,RA,SKC,0.18,WeatherDisplay:10.37,2013-08-22 19:17:00,
2013-08-22 14:22:00,82.2,69.7,29.81,NE,46,1.5,5.8,66,0.01,SCT,SKC,0.18,WeatherDisplay:10.37,2013-08-22 19:22:00,
2013-08-22 14:27:00,82.2,69.3,29.81,ESE,105,0.7,9.2,65,0.01,SCT,SKC,0.18,WeatherDisplay:10.37,2013-08-22 19:27:00,
2013-08-22 14:32:00,82.3,69.8,29.81,ENE,78,2.9,8.0,66,0.01,SCT,SKC,0.18,WeatherDisplay:10.37,2013-08-22 19:32:00,
2013-08-22 14:37:00,82.3,71.1,29.81,East,82,1.9,6.0,69,0.01,SCT,SKC,0.18,WeatherDisplay:10.37,2013-08-22 19:37:00,
2013-08-22 14:42:00,81.9,69.9,29.81,ESE,106,0.3,6.9,67,0.01,SCT,SKC,0.18,WeatherDisplay:10.37,2013-08-22 19:42:00,
2013-08-22 14:47:00,82.0,70.4,29.81,East,92,0.0,6.9,68,0.01,SCT,SKC,0.18,WeatherDisplay:10.37,2013-08-22 19:47:00,
2013-08-22 14:52:00,82.0,68.2,29.81,ENE,62,2.2,6.9,63,0.01,SCT,SKC,0.18,WeatherDisplay:10.37,2013-08-22 19:52:00,
2013-08-22 14:57:00,81.7,67.9,29.81,ENE,62,1.7,7.0,63,0.02,RA,SKC,0.19,WeatherDisplay:10.37,2013-08-22 19:57:00,
2013-08-22 15:02:00,81.3,69.7,29.81,ENE,70,1.6,4.6,68,0.02,RA,SKC,0.19,WeatherDisplay:10.37,2013-08-22 20:02:00,
2013-08-22 15:07:00,81.5,69.0,29.81,NE,49,2.2,4.6,66,0.02,SCT,SKC,0.19,WeatherDisplay:10.37,2013-08-22 20:07:00,
2013-08-22 15:12:00,81.7,68.3,29.81,NE,49,1.5,6.0,64,0.01,SCT,SKC,0.19,WeatherDisplay:10.37,2013-08-22 20:12:00,
2013-08-22 15:17:00,81.7,69.2,29.82,East,80,0.1,4.6,66,0.01,SCT,SKC,0.19,WeatherDisplay:10.37,2013-08-22 20:17:00,
2013-08-22 15:22:00,81.9,68.5,29.82,ENE,77,0.5,4.6,64,0.02,RA,SKC,0.20,WeatherDisplay:10.37,2013-08-22 20:22:00,
2013-08-22 15:27:00,82.2,70.6,29.81,ENE,74,1.0,4.6,68,0.02,RA,SKC,0.20,WeatherDisplay:10.37,2013-08-22 20:27:00,
2013-08-22 15:32:00,82.2,69.3,29.81,ENE,64,3.1,8.1,65,0.02,SCT,SKC,0.20,WeatherDisplay:10.37,2013-08-22 20:32:00,
2013-08-22 15:37:00,82.4,69.0,29.81,ENE,64,1.4,4.0,64,0.02,SCT,SKC,0.20,WeatherDisplay:10.37,2013-08-22 20:37:00,
2013-08-22 15:42:00,82.5,68.6,29.81,NE,53,2.2,8.1,63,0.02,SCT,SKC,0.20,WeatherDisplay:10.37,2013-08-22 20:42:00,
2013-08-22 15:47:00,82.5,68.2,29.81,NE,53,0.7,4.6,62,0.02,SCT,SKC,0.20,WeatherDisplay:10.37,2013-08-22 20:47:00,
2013-08-22 15:52:00,82.5,69.1,29.81,NE,53,0.3,4.6,64,0.02,SCT,SKC,0.20,WeatherDisplay:10.37,2013-08-22 20:52:00,
2013-08-22 15:57:00,82.6,67.8,29.81,NE,53,1.2,4.0,61,0.02,RA,SKC,0.21,WeatherDisplay:10.37,2013-08-22 20:57:00,
2013-08-22 16:02:00,82.6,69.6,29.81,NE,53,1.0,3.5,65,0.02,RA,SKC,0.21,WeatherDisplay:10.37,2013-08-22 21:02:00,
2013-08-22 16:07:00,82.1,67.3,29.81,East,84,2.9,6.9,61,0.02,SCT,SKC,0.21,WeatherDisplay:10.37,2013-08-22 21:07:00,
2013-08-22 16:12:00,81.0,68.1,29.81,ESE,108,1.6,8.1,65,0.02,CLR,SKC,0.21,WeatherDisplay:10.37,2013-08-22 21:12:00,
2013-08-22 16:17:00,80.2,67.4,29.81,ESE,108,2.6,4.6,65,0.02,CLR,SKC,0.21,WeatherDisplay:10.37,2013-08-22 21:17:00,
2013-08-22 16:22:00,80.3,67.0,29.81,ENE,63,3.7,9.2,64,0.01,CLR,SKC,0.21,WeatherDisplay:10.37,2013-08-22 21:22:00,
2013-08-22 16:27:00,80.8,68.8,29.81,ENE,63,1.1,2.0,67,0.01,CLR,SKC,0.21,WeatherDisplay:10.37,2013-08-22 21:27:00,
2013-08-22 16:32:00,81.1,66.8,29.81,ENE,63,2.7,5.0,62,0.01,CLR,SKC,0.21,WeatherDisplay:10.37,2013-08-22 21:32:00,
2013-08-22 16:37:00,81.4,67.1,29.81,ENE,63,0.4,3.5,62,0.01,CLR,SKC,0.21,WeatherDisplay:10.37,2013-08-22 21:37:00,
2013-08-22 16:42:00,81.3,68.0,29.81,ENE,63,1.4,6.9,64,0.01,CLR,SKC,0.21,WeatherDisplay:10.37,2013-08-22 21:42:00,
2013-08-22 16:47:00,80.7,68.3,29.81,ENE,63,0.0,4.6,66,0.02,RA,SKC,0.22,WeatherDisplay:10.37,2013-08-22 21:47:00,
2013-08-22 16:52:00,80.4,66.6,29.81,ENE,63,1.8,6.9,63,0.02,RA,SKC,0.22,WeatherDisplay:10.37,2013-08-22 21:52:00,
2013-08-22 16:57:00,80.2,67.8,29.81,ENE,63,0.1,2.3,66,0.01,CLR,SKC,0.22,WeatherDisplay:10.37,2013-08-22 21:57:00,
2013-08-22 17:02:00,79.8,67.0,29.81,ESE,107,0.1,2.3,65,0.01,CLR,SKC,0.22,WeatherDisplay:10.37,2013-08-22 22:02:00,
2013-08-22 17:07:00,79.6,65.9,29.81,ESE,105,0.2,3.5,63,0.01,CLR,SKC,0.22,WeatherDisplay:10.37,2013-08-22 22:07:00,
2013-08-22 17:12:00,79.4,66.6,29.81,ESE,105,1.4,4.0,65,0.01,CLR,SKC,0.22,WeatherDisplay:10.37,2013-08-22 22:12:00,
2013-08-22 17:17:00,79.2,65.1,29.81,ESE,112,3.0,7.0,62,0.01,CLR,SKC,0.22,WeatherDisplay:10.37,2013-08-22 22:17:00,
2013-08-22 17:22:00,78.8,64.7,29.81,ESE,113,2.3,4.6,62,0.01,CLR,SKC,0.22,WeatherDisplay:10.37,2013-08-22 22:22:00,
2013-08-22 17:27:00,78.7,65.0,29.82,ESE,113,0.1,2.3,63,0.01,CLR,SKC,0.22,WeatherDisplay:10.37,2013-08-22 22:27:00,
2013-08-22 17:32:00,78.6,66.3,29.81,ESE,113,0.9,2.3,66,0.01,CLR,SKC,0.22,WeatherDisplay:10.37,2013-08-22 22:32:00,
2013-08-22 17:37:00,78.5,64.9,29.81,ESE,113,0.0,1.2,63,0.01,CLR,SKC,0.22,WeatherDisplay:10.37,2013-08-22 22:37:00,
2013-08-22 17:42:00,78.5,65.8,29.81,ESE,112,1.3,5.0,65,0.01,CLR,SKC,0.22,WeatherDisplay:10.37,2013-08-22 22:42:00,
2013-08-22 17:47:00,78.7,65.0,29.81,ESE,112,0.0,1.2,63,0.00,CLR,SKC,0.22,WeatherDisplay:10.37,2013-08-22 22:47:00,
2013-08-22 17:52:00,78.7,65.0,29.81,ESE,112,0.0,0.0,63,0.00,CLR,SKC,0.22,WeatherDisplay:10.37,2013-08-22 22:52:00,
2013-08-22 17:57:00,78.5,64.9,29.81,ESE,112,0.4,2.3,63,0.00,CLR,SKC,0.22,WeatherDisplay:10.37,2013-08-22 22:57:00,
2013-08-22 18:02:00,78.3,65.1,29.81,ESE,112,0.6,3.0,64,0.00,CLR,SKC,0.22,WeatherDisplay:10.37,2013-08-22 23:02:00,
2013-08-22 18:07:00,78.2,65.0,29.81,ESE,112,0.9,3.5,64,0.00,CLR,SKC,0.22,WeatherDisplay:10.37,2013-08-22 23:07:00,
2013-08-22 18:12:00,78.2,65.0,29.81,ESE,112,0.5,3.5,64,0.00,CLR,SKC,0.22,WeatherDisplay:10.37,2013-08-22 23:12:00,
2013-08-22 18:17:00,78.2,65.0,29.81,ESE,112,1.3,4.0,64,0.00,CLR,SKC,0.22,WeatherDisplay:10.37,2013-08-22 23:17:00,
2013-08-22 18:22:00,78.0,65.3,29.81,ESE,112,0.0,1.2,65,0.00,CLR,SKC,0.22,WeatherDisplay:10.37,2013-08-22 23:22:00,
2013-08-22 18:27:00,77.8,65.5,29.81,ESE,112,0.1,1.0,66,0.00,CLR,SKC,0.22,WeatherDisplay:10.37,2013-08-22 23:27:00,
2013-08-22 18:32:00,77.7,64.1,29.81,ESE,112,0.0,0.0,63,0.00,CLR,SKC,0.22,WeatherDisplay:10.37,2013-08-22 23:32:00,
2013-08-22 18:37:00,77.6,64.5,29.81,ESE,112,0.9,3.5,64,0.00,CLR,SKC,0.22,WeatherDisplay:10.37,2013-08-22 23:37:00,
2013-08-22 18:42:00,77.5,64.8,29.81,ESE,112,0.1,1.2,65,0.00,CLR,SKC,0.22,WeatherDisplay:10.37,2013-08-22 23:42:00,
2013-08-22 18:47:00,77.4,64.7,29.80,ESE,112,0.0,0.0,65,0.00,CLR,SKC,0.22,WeatherDisplay:10.37,2013-08-22 23:47:00,
2013-08-22 18:52:00,77.2,65.0,29.80,ESE,112,0.0,0.0,66,0.00,CLR,SKC,0.22,WeatherDisplay:10.37,2013-08-22 23:52:00,
2013-08-22 18:57:00,77.0,64.8,29.80,ESE,112,0.0,0.0,66,0.00,CLR,SKC,0.22,WeatherDisplay:10.37,2013-08-22 23:57:00,
2013-08-22 19:02:00,76.9,65.1,29.80,ESE,112,0.0,0.0,67,0.00,CLR,SKC,0.22,WeatherDisplay:10.37,2013-08-23 00:02:00,
2013-08-22 19:07:00,76.7,65.3,29.81,ESE,112,0.0,0.0,68,0.00,CLR,SKC,0.22,WeatherDisplay:10.37,2013-08-23 00:07:00,
2013-08-22 19:12:00,76.5,65.1,29.81,ESE,112,0.0,0.0,68,0.00,CLR,SKC,0.22,WeatherDisplay:10.37,2013-08-23 00:12:00,
2013-08-22 19:17:00,76.3,65.0,29.81,ESE,112,0.0,0.0,68,0.00,CLR,SKC,0.22,WeatherDisplay:10.37,2013-08-23 00:17:00,
2013-08-22 19:22:00,76.0,65.1,29.81,ESE,112,0.0,0.0,69,0.00,CLR,SKC,0.22,WeatherDisplay:10.37,2013-08-23 00:22:00,
2013-08-22 19:27:00,75.8,64.9,29.81,ESE,112,0.0,0.0,69,0.00,CLR,SKC,0.22,WeatherDisplay:10.37,2013-08-23 00:27:00,
2013-08-22 19:32:00,75.5,65.0,29.81,ESE,112,0.0,0.0,70,0.00,CLR,SKC,0.22,WeatherDisplay:10.37,2013-08-23 00:32:00,
2013-08-22 19:37:00,75.3,64.8,29.81,ESE,112,0.0,0.0,70,0.00,CLR,SKC,0.22,WeatherDisplay:10.37,2013-08-23 00:37:00,
2013-08-22 19:42:00,75.1,65.1,29.81,ESE,112,0.0,0.0,71,0.00,CLR,SKC,0.23,WeatherDisplay:10.37,2013-08-23 00:42:00,
2013-08-22 19:47:00,75.0,65.4,29.81,ESE,112,0.0,0.0,72,0.01,RA,SKC,0.23,WeatherDisplay:10.37,2013-08-23 00:47:00,
2013-08-22 19:52:00,74.5,65.3,29.81,ESE,112,0.0,0.0,73,0.01,RA,SKC,0.23,WeatherDisplay:10.37,2013-08-23 00:52:00,
2013-08-22 19:57:00,74.0,65.2,29.81,ESE,112,0.0,0.0,74,0.01,CLR,SKC,0.23,WeatherDisplay:10.37,2013-08-23 00:57:00,
2013-08-22 20:02:00,73.5,64.7,29.81,ESE,112,0.0,0.0,74,0.04,RA,SKC,0.26,WeatherDisplay:10.37,2013-08-23 01:02:00,
2013-08-22 20:07:00,72.9,64.1,29.81,ESE,112,0.0,0.0,74,0.04,RA,SKC,0.26,WeatherDisplay:10.37,2013-08-23 01:07:00,
2013-08-22 20:12:00,72.5,63.7,29.81,ESE,112,0.0,0.0,74,0.04,CLR,SKC,0.26,WeatherDisplay:10.37,2013-08-23 01:12:00,
2013-08-22 20:17:00,72.1,63.4,29.81,ESE,112,0.0,0.0,74,0.04,CLR,SKC,0.26,WeatherDisplay:10.37,2013-08-23 01:17:00,
2013-08-22 20:22:00,71.8,62.7,29.81,ESE,112,0.0,0.0,73,0.04,CLR,SKC,0.26,WeatherDisplay:10.37,2013-08-23 01:22:00,
2013-08-22 20:27:00,71.4,62.7,29.81,ESE,112,0.0,0.0,74,0.04,CLR,SKC,0.26,WeatherDisplay:10.37,2013-08-23 01:27:00,
2013-08-22 20:32:00,71.1,62.0,29.81,ESE,112,0.0,0.0,73,0.04,CLR,SKC,0.26,WeatherDisplay:10.37,2013-08-23 01:32:00,
2013-08-22 20:37:00,70.8,61.7,29.81,ESE,112,0.0,0.0,73,0.04,CLR,SKC,0.26,WeatherDisplay:10.37,2013-08-23 01:37:00,
2013-08-22 20:42:00,70.7,61.6,29.81,ESE,112,0.0,0.0,73,0.04,CLR,SKC,0.26,WeatherDisplay:10.37,2013-08-23 01:42:00,
2013-08-22 20:47:00,70.5,61.8,29.82,ESE,112,0.0,0.0,74,0.03,CLR,SKC,0.26,WeatherDisplay:10.37,2013-08-23 01:47:00,
2013-08-22 20:52:00,70.4,61.7,29.82,ESE,112,0.0,0.0,74,0.03,CLR,SKC,0.26,WeatherDisplay:10.37,2013-08-23 01:52:00,
2013-08-22 20:57:00,70.4,61.3,29.82,ESE,112,0.0,0.0,73,0.03,CLR,SKC,0.26,WeatherDisplay:10.37,2013-08-23 01:57:00,
2013-08-22 21:02:00,70.1,61.0,29.82,ESE,112,0.0,0.0,73,0.00,CLR,SKC,0.26,WeatherDisplay:10.37,2013-08-23 02:02:00,
2013-08-22 21:07:00,69.8,60.8,29.83,ESE,112,0.0,0.0,73,0.00,CLR,SKC,0.26,WeatherDisplay:10.37,2013-08-23 02:07:00,
2013-08-22 21:12:00,69.3,60.3,29.83,ESE,112,0.0,0.0,73,0.00,CLR,SKC,0.26,WeatherDisplay:10.37,2013-08-23 02:12:00,
2013-08-22 21:17:00,68.5,59.5,29.83,ESE,112,0.0,0.0,73,0.00,CLR,SKC,0.26,WeatherDisplay:10.37,2013-08-23 02:17:00,
2013-08-22 21:22:00,68.0,58.6,29.83,ESE,112,0.0,0.0,72,0.00,CLR,SKC,0.26,WeatherDisplay:10.37,2013-08-23 02:22:00,
2013-08-22 21:27:00,67.8,58.8,29.83,ESE,112,0.0,0.0,73,0.00,CLR,SKC,0.26,WeatherDisplay:10.37,2013-08-23 02:27:00,
2013-08-22 21:32:00,67.7,58.7,29.83,ESE,112,0.0,0.0,73,0.00,CLR,SKC,0.26,WeatherDisplay:10.37,2013-08-23 02:32:00,
2013-08-22 21:37:00,67.7,58.7,29.83,ESE,112,0.0,0.0,73,0.00,CLR,SKC,0.26,WeatherDisplay:10.37,2013-08-23 02:37:00,
2013-08-22 21:42:00,67.7,58.7,29.83,ESE,112,0.0,0.0,73,0.00,CLR,SKC,0.26,WeatherDisplay:10.37,2013-08-23 02:42:00,
2013-08-22 21:47:00,67.5,58.5,29.83,ESE,112,0.0,0.0,73,0.00,CLR,SKC,0.26,WeatherDisplay:10.37,2013-08-23 02:47:00,
2013-08-22 21:52:00,67.4,58.1,29.83,ESE,112,0.0,0.0,72,0.00,CLR,SKC,0.26,WeatherDisplay:10.37,2013-08-23 02:52:00,
2013-08-22 21:57:00,67.4,58.1,29.83,ESE,112,0.0,0.0,72,0.00,CLR,SKC,0.26,WeatherDisplay:10.37,2013-08-23 02:57:00,
2013-08-22 22:02:00,67.3,58.0,29.84,ESE,112,0.0,0.0,72,0.00,CLR,SKC,0.26,WeatherDisplay:10.37,2013-08-23 03:02:00,
2013-08-22 22:07:00,67.2,57.9,29.84,ESE,112,0.0,0.0,72,0.00,CLR,SKC,0.26,WeatherDisplay:10.37,2013-08-23 03:07:00,
2013-08-22 22:12:00,67.0,58.1,29.84,ESE,112,0.0,0.0,73,0.00,CLR,SKC,0.26,WeatherDisplay:10.37,2013-08-23 03:12:00,
2013-08-22 22:17:00,66.8,57.9,29.84,ESE,112,0.0,0.0,73,0.00,CLR,SKC,0.26,WeatherDisplay:10.37,2013-08-23 03:17:00,
2013-08-22 22:22:00,66.5,57.6,29.84,ESE,112,0.0,0.0,73,0.00,CLR,SKC,0.26,WeatherDisplay:10.37,2013-08-23 03:22:00,
2013-08-22 22:27:00,66.1,57.2,29.84,ESE,112,0.0,0.0,73,0.00,CLR,SKC,0.26,WeatherDisplay:10.37,2013-08-23 03:27:00,
2013-08-22 22:32:00,65.8,56.5,29.84,ESE,112,0.0,0.0,72,0.00,CLR,SKC,0.26,WeatherDisplay:10.37,2013-08-23 03:32:00,
2013-08-22 22:37:00,65.6,56.3,29.84,ESE,112,0.0,0.0,72,0.00,CLR,SKC,0.26,WeatherDisplay:10.37,2013-08-23 03:37:00,
2013-08-22 22:42:00,65.5,55.8,29.84,ESE,112,0.0,0.0,71,0.00,CLR,SKC,0.26,WeatherDisplay:10.37,2013-08-23 03:42:00,
2013-08-22 22:47:00,65.4,55.7,29.84,ESE,112,0.0,0.0,71,0.00,CLR,SKC,0.26,WeatherDisplay:10.37,2013-08-23 03:47:00,
2013-08-22 22:52:00,65.5,55.8,29.84,ESE,112,0.0,0.0,71,0.00,CLR,SKC,0.26,WeatherDisplay:10.37,2013-08-23 03:52:00,
2013-08-22 22:57:00,65.5,55.8,29.84,ESE,112,0.0,0.0,71,0.00,CLR,SKC,0.26,WeatherDisplay:10.37,2013-08-23 03:57:00,
2013-08-22 23:01:00,65.6,55.9,29.84,ESE,112,0.0,0.0,71,0.00,CLR,SKC,0.26,WeatherDisplay:10.37,2013-08-23 04:01:00,
2013-08-22 23:02:00,65.6,55.9,29.84,ESE,112,0.0,0.0,71,0.00,CLR,SKC,0.26,WeatherDisplay:10.37,2013-08-23 04:02:00,
2013-08-22 23:04:00,65.6,55.9,29.84,ESE,112,0.0,0.0,71,0.00,CLR,SKC,0.26,WeatherDisplay:10.37,2013-08-23 04:04:00,
2013-08-22 23:09:00,65.7,56.0,29.84,ESE,112,0.0,0.0,71,0.00,CLR,SKC,0.26,WeatherDisplay:10.37,2013-08-23 04:09:00,
2013-08-22 23:14:00,65.7,56.0,29.84,ESE,112,0.0,0.0,71,0.00,CLR,SKC,0.26,WeatherDisplay:10.37,2013-08-23 04:14:00,
2013-08-22 23:16:00,65.7,56.0,29.84,ESE,112,0.0,0.0,71,0.00,CLR,SKC,0.26,WeatherDisplay:10.37,2013-08-23 04:16:00,
2013-08-22 23:21:00,65.6,56.3,29.84,ESE,112,0.0,0.0,72,0.00,CLR,SKC,0.26,WeatherDisplay:10.37,2013-08-23 04:21:00,
2013-08-22 23:26:00,65.4,56.1,29.84,ESE,112,0.0,0.0,72,0.00,CLR,SKC,0.26,WeatherDisplay:10.37,2013-08-23 04:26:00,
2013-08-22 23:31:00,65.1,55.8,29.84,ESE,112,0.0,0.0,72,0.00,CLR,SKC,0.26,WeatherDisplay:10.37,2013-08-23 04:31:00,
2013-08-22 23:36:00,64.9,55.7,29.84,ESE,112,0.0,0.0,72,0.00,CLR,SKC,0.26,WeatherDisplay:10.37,2013-08-23 04:36:00,
2013-08-22 23:41:00,64.7,55.1,29.84,ESE,112,0.0,0.0,71,0.00,CLR,SKC,0.26,WeatherDisplay:10.37,2013-08-23 04:41:00,
2013-08-22 23:46:00,64.5,54.9,29.84,ESE,112,0.0,0.0,71,0.00,CLR,SKC,0.26,WeatherDisplay:10.37,2013-08-23 04:46:00,
2013-08-22 23:51:00,64.4,54.8,29.85,ESE,112,0.0,0.0,71,0.00,CLR,SKC,0.26,WeatherDisplay:10.37,2013-08-23 04:51:00,
2013-08-22 23:56:00,64.3,54.7,29.85,ESE,112,0.0,0.0,71,0.00,CLR,SKC,0.26,WeatherDisplay:10.37,2013-08-23 04:56:00,